User: anonymous   Login
Location: LewisvilleTX
(33.0462°N, 96.9942°W)
Time: 21:47:52
(UTC+00:00)
Language:

Envisat - Orbit

View from above orbital plane
View from above orbital plane
View from above satellite
View from above satellite

Ground track
Ground track

The orbit data is extracted from the following two-line orbital elements,

1 27386U 02009A   24058.51117973  .00000245  00000-0  93950-4 0  9991
2 27386  98.2687  23.5341 0001368  90.8870  20.1970 14.38509740152666
Epoch (UTC): 27 February 2024 12:16:05
Eccentricity: 0.0001368
inclination: 98.2687°
perigee height: 762 km
apogee height: 764 km
right ascension of ascending node: 23.5341°
argument of perigee: 90.8870°
revolutions per day: 14.38509740
mean anomaly at epoch: 20.1970°
orbit number at epoch: 15266

The dashed part of the orbit path shows where the satellite is in the earth's shadow,  

DLR